This demonstration page uses our WeatherBlox Daily Observations layout. Learn more.

Hourly Observations for September 20, 2016

Temp ( °F °C ) Dew Point ( °F °C ) Humidity (%) Winds ( mph kmh ) Pressure ( in mb ) Visibility ( mi km ) Precip ( " mm )
12:15 am 00:15 Clear 60 15.7 55 12.6 82 82 E 7 11 30.06 1018 10 16.09344 0 0
12:35 am 00:35 Clear 60 15.5 55 12.7 84 84 E 5 7 30.06 1018 10 16.09344 0 0
12:55 am 00:55 Clear 60 15.8 55 12.6 81 81 E 6 9 30.06 1018 10 16.09344 0 0
1:15 am 01:15 Clear 60 15.7 55 12.6 82 82 E 6 9 30.06 1018 10 16.09344 0 0
1:35 am 01:35 Clear 58 14.7 55 12.6 87 87 ESE 6 9 30.06 1018 10 16.09344 0 0
1:55 am 01:55 Clear 60 15.3 55 13 86 86 E 9 15 30.06 1018 10 16.09344 0 0
2:15 am 02:15 Clear 60 15.6 55 13 85 85 ESE 9 15 30.06 1018 10 16.09344 0 0
2:35 am 02:35 Clear 60 15.6 55 13 85 85 ESE 9 15 30.06 1018 10 16.09344 0 0
2:55 am 02:55 Clear 60 15.7 56 13.1 85 85 ESE 10 17 30.06 1018 10 16.09344 0 0
3:15 am 03:15 Clear 60 15.8 56 13.2 85 85 ESE 9 15 30.06 1018 10 16.09344 0 0
3:35 am 03:35 Clear 61 16 56 13.5 85 85 ESE 10 17 30.06 1018 10 16.09344 0 0
3:55 am 03:55 Clear 62 16.4 57 14.1 86 86 SE 10 17 30.06 1018 10 16.09344 0 0
4:15 am 04:15 Clear 63 17.1 59 14.9 87 87 SE 10 17 30.03 1017 10 16.09344 0 0
4:35 am 04:35 Clear 63 17 59 14.9 88 88 SE 10 17 30.03 1017 10 16.09344 0 0
4:55 am 04:55 Clear 62 16.5 58 14.7 89 89 SE 9 15 30.06 1018 10 16.09344 0 0
5:15 am 05:15 Clear 61 16.2 58 14.6 90 90 SSE 8 13 30.03 1017 10 16.09344 0 0
5:35 am 05:35 Clear 61 15.9 58 14.5 91 91 SSE 7 11 30.03 1017 10 16.09344 0 0
5:55 am 05:55 Clear 60 15.7 58 14.5 93 93 SSE 5 7 30.03 1017 10 16.09344 0 0
6:15 am 06:15 Clear 60 15.5 58 14.5 94 94 SSE 3 6 30.03 1017 10 16.09344 0 0
6:35 am 06:35 Clear 60 15.3 58 14.4 94 94 SSE 6 9 30.03 1017 10 16.09344 0 0
6:55 am 06:55 Clear 61 16.1 59 15.2 94 94 SSE 7 11 30.03 1017 10 16.09344 0 0
7:15 am 07:15 Clear 62 16.5 60 15.6 94 94 S 7 11 30.03 1017 7 11.265408 0 0
7:35 am 07:35 Sunny 63 17.3 62 16.4 94 94 S 7 11 30 1016 7 11.265408 0 0
7:55 am 07:55 Sunny 64 17.8 62 16.7 93 93 S 8 13 30 1016 7 11.265408 0 0
8:15 am 08:15 Sunny 65 18.1 63 17 93 93 S 7 11 30 1016 7 11.265408 0 0
8:35 am 08:35 Sunny 66 19 64 17.5 91 91 S 7 11 30 1016 10 16.09344 0 0
8:55 am 08:55 Sunny 69 20.3 64 17.8 86 86 S 8 13 29.97 1015 10 16.09344 0 0
9:15 am 09:15 Sunny 71 21.4 65 18.1 82 82 S 10 17 29.97 1015 10 16.09344 0 0
9:35 am 09:35 Sunny 72 22.3 65 18.1 77 77 S 8 13 29.97 1015 10 16.09344 0 0
9:55 am 09:55 Sunny 74 23.4 64 18 72 72 S 9 15 29.97 1015 10 16.09344 0 0
10:15 am 10:15 Sunny 75 24.1 64 17.5 67 67 S 9 15 29.94 1014 10 16.09344 0 0
10:35 am 10:35 Sunny 77 25.1 62 16.7 60 60 SSW 14 22 29.94 1014 10 16.09344 0 0
10:55 am 10:55 Sunny 77 25 62 16.8 60 60 S 9 15 29.94 1014 10 16.09344 0 0
11:15 am 11:15 Sunny 78 25.5 62 16.7 58 58 S 13 20 29.94 1014 10 16.09344 0 0
11:35 am 11:35 Sunny 78 25.5 62 16.5 58 58 S 13 20 29.94 1014 10 16.09344 0 0
11:55 am 11:55 Sunny 79 26 62 16.8 57 57 S 14 22 29.91 1013 10 16.09344 0 0
12:15 pm 12:15 Sunny 81 27.1 62 16.6 53 53 S 15 24 29.88 1012 10 16.09344 0 0
12:35 pm 12:35 Sunny 82 27.9 62 16.7 51 51 S 13 20 29.88 1012 10 16.09344 0 0
12:55 pm 12:55 Sunny 84 28.8 62 16.7 48 48 S 14 22 29.88 1012 10 16.09344 0 0
1:15 pm 13:15 Sunny 85 29.7 62 16.7 46 46 S 18 30 29.85 1011 10 16.09344 0 0
1:35 pm 13:35 Sunny 87 30.6 62 16.6 43 43 S 18 30 29.83 1010 10 16.09344 0 0
1:55 pm 13:55 Sunny 88 31.2 62 16.4 41 41 S 18 30 29.83 1010 10 16.09344 0 0
2:15 pm 14:15 Sunny 87 30.7 62 16.4 42 42 S 16 26 29.83 1010 10 16.09344 0 0
2:35 pm 14:35 Sunny 88 31 61 16.2 41 41 S 18 30 29.8 1009 10 16.09344 0 0
2:55 pm 14:55 Sunny 89 31.5 61 16.2 40 40 S 18 30 29.8 1009 10 16.09344 0 0
3:15 pm 15:15 Sunny 91 32.5 60 15.4 36 36 S 16 26 29.8 1009 10 16.09344 0 0
3:35 pm 15:35 Sunny 92 33.5 58 14.7 32 32 S 20 31 29.77 1008 10 16.09344 0 0
3:55 pm 15:55 Sunny 92 33.4 56 13.1 29 29 SSW 21 33 29.77 1008 10 16.09344 0 0
4:15 pm 16:15 Sunny 92 33.4 53 11.9 27 27 S 14 22 29.77 1008 10 16.09344 0 0
4:35 pm 16:35 Sunny 92 33.6 55 12.7 28 28 S 14 22 29.77 1008 10 16.09344 0 0
4:55 pm 16:55 Sunny 92 33.6 55 12.5 28 28 S 15 24 29.77 1008 10 16.09344 0 0
5:15 pm 17:15 Sunny 92 33.6 54 12.1 27 27 S 13 20 29.77 1008 10 16.09344 0 0
5:35 pm 17:35 Sunny 92 33.5 54 12 27 27 S 10 17 29.77 1008 10 16.09344 0 0
5:55 pm 17:55 Sunny 91 33 54 12.1 28 28 S 9 15 29.77 1008 10 16.09344 0 0
6:15 pm 18:15 Sunny 90 32.3 53 11.7 28 28 S 9 15 29.77 1008 10 16.09344 0 0
6:35 pm 18:35 Sunny 88 31 54 12 31 31 S 9 15 29.77 1008 10 16.09344 0 0
6:55 pm 18:55 Sunny 85 29.5 55 12.5 35 35 SSE 7 11 29.8 1009 10 16.09344 0 0
7:15 pm 19:15 Sunny 82 27.6 56 13.5 42 42 SSE 7 11 29.8 1009 10 16.09344 0 0
7:35 pm 19:35 Sunny 79 26.2 58 14.5 49 49 SSE 8 13 29.8 1009 10 16.09344 0 0
7:55 pm 19:55 Clear 78 25.7 59 15.1 52 52 SSE 8 13 29.83 1010 10 16.09344 0 0
8:15 pm 20:15 Clear 76 24.7 60 15.5 57 57 SSE 8 13 29.83 1010 10 16.09344 0 0
8:35 pm 20:35 Clear 75 24 60 15.7 60 60 SSE 8 13 29.83 1010 10 16.09344 0 0
8:55 pm 20:55 Clear 75 24 60 15.5 59 59 SSE 10 17 29.83 1010 10 16.09344 0 0
9:15 pm 21:15 Clear 74 23.6 60 15.5 61 61 SSE 9 15 29.85 1011 10 16.09344 0 0
9:35 pm 21:35 Clear 73 23 60 15.5 63 63 SSE 8 13 29.85 1011 10 16.09344 0 0
9:55 pm 21:55 Clear 73 22.8 60 15.5 64 64 SSE 8 13 29.85 1011 10 16.09344 0 0
10:15 pm 22:15 Clear 73 23 60 15.5 63 63 SSE 9 15 29.85 1011 10 16.09344 0 0
10:35 pm 22:35 Clear 74 23.4 60 15.3 61 61 SSE 9 15 29.85 1011 10 16.09344 0 0
10:55 pm 22:55 Clear 75 24 59 14.9 57 57 SSE 12 19 29.85 1011 10 16.09344 0 0
11:15 pm 23:15 Clear 75 24 58 14.5 55 55 SSE 9 15 29.85 1011 10 16.09344 0 0
11:35 pm 23:35 Clear 74 23.5 58 14.6 57 57 SSE 9 15 29.85 1011 10 16.09344 0 0
11:55 pm 23:55 Clear 74 23.1 58 14.5 59 59 SSE 9 15 29.85 1011 10 16.09344 0 0

Powered by AerisWeather